TimeMDT,TemperatureF,Dew PointF,Humidity,Sea Level PressureIn,VisibilityMPH,Wind Direction,Wind SpeedMPH,Gust SpeedMPH,PrecipitationIn,Events,Conditions,WindDirDegrees,DateUTC
12:53 AM,53.1,48.9,86,29.84,10.0,SSW,18.4,-,N/A,,Clear,200,2012-10-13 06:53:00
1:12 AM,51.8,48.2,88,29.88,10.0,SSW,15.0,27.6,N/A,,Scattered Clouds,210,2012-10-13 07:12:00
1:24 AM,51.8,48.2,88,29.86,10.0,SSW,18.4,-,N/A,,Mostly Cloudy,200,2012-10-13 07:24:00
1:53 AM,51.1,48.9,92,29.81,10.0,SSW,12.7,-,N/A,,Mostly Cloudy,210,2012-10-13 07:53:00
2:37 AM,51.8,48.2,88,29.84,10.0,SSW,11.5,-,N/A,,Scattered Clouds,210,2012-10-13 08:37:00
2:53 AM,51.1,48.9,92,29.79,10.0,SSW,13.8,-,N/A,,Partly Cloudy,210,2012-10-13 08:53:00
3:53 AM,48.9,46.9,93,29.77,9.0,WSW,9.2,-,N/A,,Clear,240,2012-10-13 09:53:00
4:53 AM,46.9,45.0,93,29.80,8.0,West,5.8,-,N/A,,Scattered Clouds,280,2012-10-13 10:53:00
5:03 AM,48.2,46.4,93,29.85,9.0,West,5.8,-,N/A,,Mostly Cloudy,280,2012-10-13 11:03:00
5:45 AM,46.4,46.4,100,29.84,6.0,SSW,6.9,-,N/A,,Scattered Clouds,210,2012-10-13 11:45:00
5:53 AM,46.0,45.0,96,29.82,6.0,West,4.6,-,N/A,,Partly Cloudy,280,2012-10-13 11:53:00
6:33 AM,42.8,42.8,100,29.84,2.0,SSW,4.6,-,N/A,,Clear,200,2012-10-13 12:33:00
6:36 AM,41.0,41.0,100,29.84,1.0,South,4.6,-,N/A,,Mist,180,2012-10-13 12:36:00
6:43 AM,39.2,39.2,100,29.84,0.2,SW,3.5,-,N/A,Fog,Fog,220,2012-10-13 12:43:00
6:53 AM,41.0,39.9,96,29.83,0.8,West,6.9,-,N/A,,Mist,260,2012-10-13 12:53:00
6:56 AM,41.0,39.2,93,29.84,1.2,West,8.1,-,N/A,,Partly Cloudy,270,2012-10-13 12:56:00
6:59 AM,42.8,41.0,93,29.85,3.0,West,9.2,-,N/A,,Partly Cloudy,280,2012-10-13 12:59:00
7:53 AM,45.0,42.1,90,29.82,10.0,WNW,10.4,-,N/A,,Clear,290,2012-10-13 13:53:00
8:53 AM,53.1,43.0,69,29.80,10.0,West,12.7,-,N/A,,Clear,280,2012-10-13 14:53:00
9:53 AM,60.1,42.1,51,29.76,10.0,NW,13.8,-,N/A,,Clear,320,2012-10-13 15:53:00
10:53 AM,66.0,37.9,36,29.74,10.0,NNW,17.3,26.5,N/A,,Clear,330,2012-10-13 16:53:00
11:53 AM,69.1,37.0,31,29.70,10.0,NNW,11.5,18.4,N/A,,Clear,330,2012-10-13 17:53:00
12:53 PM,71.1,37.0,29,29.66,10.0,North,10.4,16.1,N/A,,Clear,10,2012-10-13 18:53:00
1:53 PM,69.8,35.6,28,29.73,10.0,NW,17.3,28.8,N/A,,Mostly Cloudy,310,2012-10-13 19:53:00
2:53 PM,66.9,36.0,32,29.64,10.0,North,10.4,23.0,N/A,,Clear,350,2012-10-13 20:53:00
3:20 PM,57.2,48.2,72,29.73,9.0,NW,25.3,39.1,0.00,Rain-Thunderstorm,Light Thunderstorms and Rain,320,2012-10-13 21:20:00
3:53 PM,57.0,48.9,74,29.70,10.0,NNW,23.0,-,0.02,Thunderstorm,Mostly Cloudy,330,2012-10-13 21:53:00
4:16 PM,57.2,46.4,67,29.78,10.0,NNW,19.6,26.5,0.00,Rain,Light Rain,340,2012-10-13 22:16:00
4:53 PM,61.0,45.0,56,29.71,10.0,NW,25.3,31.1,0.00,,Mostly Cloudy,320,2012-10-13 22:53:00
6:40 PM,53.6,46.4,77,29.82,9.0,NNW,16.1,25.3,0.00,Rain-Thunderstorm,Light Rain,330,2012-10-14 00:40:00
6:53 PM,53.1,46.9,80,29.81,10.0,NNW,12.7,-,0.00,Rain,Light Rain,340,2012-10-14 00:53:00
7:53 PM,50.0,46.4,87,29.85,10.0,West,5.8,-,N/A,,Scattered Clouds,270,2012-10-14 01:53:00
8:53 PM,54.0,45.0,72,29.83,10.0,WNW,11.5,-,0.00,,Overcast,300,2012-10-14 02:53:00
9:53 PM,53.6,41.0,62,29.91,10.0,NNW,13.8,-,N/A,,Clear,340,2012-10-14 03:53:00
10:53 PM,55.4,44.6,67,29.95,10.0,NW,15.0,-,N/A,,Overcast,320,2012-10-14 04:53:00
11:53 PM,55.0,43.0,64,29.90,10.0,NW,13.8,-,N/A,,Mostly Cloudy,320,2012-10-14 05:53:00